Content
SEND FEEDBACK

Daily
Averages
Monthly
Summary
United States of America

CAMP QUEZON, GUAM


Home > North America > United States > Guam
Elevation: 269 feet     Latitude: 13 28N     Longitude: 144 48E

WEATHER
 
SELECT A DAY
Number of Records: 214,928;   Date Range: 1/1/95 - 11/26/14
 
SHARE

PRINT THIS DATA

[ ← Previous Day ]
WEATHER ALMANAC - JANUARY 17, 2013
[ Next Day → ]
[ °C ]   °F
Weather ElementAverageHighLow
Temperature80.7 °F86 °F (1:54 pm)77 °F (1:54 am)
Dewpoint72.9 °F75.9 °F (1:54 am)71.1 °F (1:54 pm)
Humidity77.7 %96 % (1:54 am)61 % (1:54 pm)
Barometer29.87 in29.92 in (8:54 am)29.81 in (1:54 pm)
Wind Speed10.7 mph18.4 mph (3:54 pm)
Wind Gust25.3 mph (11:54 am)
Weather ElementAverage
Visibility10 mi
Wind DirectionENE (72.6 °)

Weather ElementTotal
Precipitation---
Cooling Degree Days16.5 (Base 65)
Growing Degree Days31.5 (Base 50)
Averaged from 23 records on January 17, 2013
WEATHER CONDITIONS BREAKOUT
WIND DIRECTION BREAKOUT
WEATHER BY HOUR - JANUARY 17, 2013
[ °C ]   °F
Local TimeTemperatureDewpointHumidityBarometerVisibilityWind DirectionWind SpeedGust SpeedPrecipitationEventsConditions
1:54 AM77.0 °F75.9 °F96 %29.88 in10.0 miENE (60°)6.9 mphPartly Cloudy
2:54 AM77.0 °F75.0 °F94 %29.88 in10.0 miENE (60°)8.1 mphPartly Cloudy
3:54 AM77.0 °F75.0 °F94 %29.87 in10.0 miENE (70°)8.1 mphPartly Cloudy
4:54 AM77.0 °F73.9 °F90 %29.86 in10.0 miENE (70°)6.9 mphClear
5:54 AM77.0 °F75.0 °F94 %29.87 in10.0 miEast (80°)6.9 mphClear
6:54 AM78.1 °F73.0 °F84 %29.89 in10.0 miEast (80°)8.1 mphClear
7:54 AM79.0 °F73.0 °F82 %29.91 in10.0 miEast (80°)8.1 mphClear
8:54 AM80.1 °F73.0 °F79 %29.92 in10.0 miEast (80°)10.4 mphScattered Clouds
9:54 AM82.9 °F73.9 °F74 %29.92 in10.0 miEast (90°)15.0 mph20.7 mphPartly Cloudy
10:54 AM84.0 °F72.0 °F67 %29.89 in10.0 miEast (80°)17.3 mph23.0 mphScattered Clouds
11:54 AM84.9 °F73.0 °F67 %29.87 in10.0 miEast (90°)16.1 mph25.3 mphMostly Cloudy
12:54 PM84.9 °F72.0 °F65 %29.83 in10.0 miENE (60°)13.8 mphScattered Clouds
1:54 PM86.0 °F71.1 °F61 %29.81 in10.0 miENE (70°)15.0 mph21.9 mphPartly Cloudy
2:54 PM84.9 °F71.1 °F63 %29.81 in10.0 miENE (60°)13.8 mph20.7 mphPartly Cloudy
3:54 PM84.0 °F72.0 °F67 %29.81 in10.0 miENE (60°)18.4 mphScattered Clouds
4:54 PM82.9 °F72.0 °F69 %29.83 in10.0 miENE (70°)12.7 mphScattered Clouds
5:54 PM81.0 °F72.0 °F74 %29.85 in10.0 miEast (80°)10.4 mphPartly Cloudy
6:54 PM80.1 °F73.0 °F79 %29.86 in10.0 miENE (70°)10.4 mphClear
7:54 PM80.1 °F73.0 °F79 %29.88 in10.0 miENE (70°)6.9 mphClear
8:54 PM80.1 °F72.0 °F76 %29.87 in10.0 miENE (70°)10.4 mphClear
9:54 PM80.1 °F72.0 °F76 %29.87 in10.0 miENE (70°)9.2 mphScattered Clouds
10:54 PM79.0 °F72.0 °F79 %29.87 in10.0 miEast (80°)8.1 mphClear
11:54 PM79.0 °F71.1 °F77 %29.86 in10.0 miENE (70°)5.8 mphClear
Hourly data recorded from PGUM, located miles away from Camp Quezon, Guam







STORIES FROM OUR PARTNERS